Year,Month,Day,Hour,Minute,Value (Times are PST for temperature in C)
2010,07,09,00,00,20.60
2010,07,09,00,01,20.60
2010,07,09,00,02,20.50
2010,07,09,00,03,20.40
2010,07,09,00,04,20.40
2010,07,09,00,05,20.40
2010,07,09,00,06,20.30
2010,07,09,00,07,20.30
2010,07,09,00,08,20.30
2010,07,09,00,09,20.30
2010,07,09,00,10,20.20
2010,07,09,00,11,20.20
2010,07,09,00,12,20.20
2010,07,09,00,13,20.20
2010,07,09,00,14,20.20
2010,07,09,00,15,20.10
2010,07,09,00,16,20.10
2010,07,09,00,17,20.10
2010,07,09,00,18,20.10
2010,07,09,00,19,20.00
2010,07,09,00,20,19.90
2010,07,09,00,21,19.90
2010,07,09,00,22,19.90
2010,07,09,00,23,19.80
2010,07,09,00,24,19.80
2010,07,09,00,25,19.80
2010,07,09,00,26,19.80
2010,07,09,00,27,19.70
2010,07,09,00,28,19.70
2010,07,09,00,29,19.70
2010,07,09,00,30,19.70
2010,07,09,00,31,19.70
2010,07,09,00,32,19.70
2010,07,09,00,33,19.60
2010,07,09,00,34,19.60
2010,07,09,00,35,19.60
2010,07,09,00,36,19.60
2010,07,09,00,37,19.60
2010,07,09,00,38,19.60
2010,07,09,00,39,19.60
2010,07,09,00,40,19.60
2010,07,09,00,41,19.60
2010,07,09,00,42,19.60
2010,07,09,00,43,19.60
2010,07,09,00,44,19.60
2010,07,09,00,45,19.60
2010,07,09,00,46,19.60
2010,07,09,00,47,19.50
2010,07,09,00,48,19.50
2010,07,09,00,49,19.50
2010,07,09,00,50,19.40
2010,07,09,00,51,19.40
2010,07,09,00,52,19.30
2010,07,09,00,53,19.20
2010,07,09,00,54,19.20
2010,07,09,00,55,19.10
2010,07,09,00,56,19.10
2010,07,09,00,57,19.10
2010,07,09,00,58,19.10
2010,07,09,00,59,19.10
2010,07,09,01,00,19.10
2010,07,09,01,01,19.10
2010,07,09,01,02,19.10
2010,07,09,01,03,19.10
2010,07,09,01,04,19.10
2010,07,09,01,05,19.00
2010,07,09,01,06,19.00
2010,07,09,01,07,19.00
2010,07,09,01,08,19.00
2010,07,09,01,09,18.90
2010,07,09,01,10,18.90
2010,07,09,01,11,18.90
2010,07,09,01,12,18.80
2010,07,09,01,13,18.80
2010,07,09,01,14,18.80
2010,07,09,01,15,18.80
2010,07,09,01,16,18.70
2010,07,09,01,17,18.70
2010,07,09,01,18,18.70
2010,07,09,01,19,18.60
2010,07,09,01,20,18.60
2010,07,09,01,21,18.60
2010,07,09,01,22,18.60
2010,07,09,01,23,18.50
2010,07,09,01,24,18.50
2010,07,09,01,25,18.40
2010,07,09,01,26,18.40
2010,07,09,01,27,18.30
2010,07,09,01,28,18.30
2010,07,09,01,29,18.30
2010,07,09,01,30,18.20
2010,07,09,01,31,18.20
2010,07,09,01,32,18.20
2010,07,09,01,33,18.20
2010,07,09,01,34,18.10
2010,07,09,01,35,18.10
2010,07,09,01,36,18.10
2010,07,09,01,37,18.00
2010,07,09,01,38,18.00
2010,07,09,01,39,17.90
2010,07,09,01,40,17.90
2010,07,09,01,41,17.90
2010,07,09,01,42,17.90
2010,07,09,01,43,17.90
2010,07,09,01,44,17.90
2010,07,09,01,45,17.90
2010,07,09,01,46,17.90
2010,07,09,01,47,17.90
2010,07,09,01,48,17.90
2010,07,09,01,49,17.80
2010,07,09,01,50,17.80
2010,07,09,01,51,17.80
2010,07,09,01,52,17.80
2010,07,09,01,53,17.80
2010,07,09,01,54,17.80
2010,07,09,01,55,17.70
2010,07,09,01,56,17.70
2010,07,09,01,57,17.70
2010,07,09,01,58,17.70
2010,07,09,01,59,17.60
2010,07,09,02,00,17.60
2010,07,09,02,01,17.60
2010,07,09,02,02,17.60
2010,07,09,02,03,17.50
2010,07,09,02,04,17.50
2010,07,09,02,05,17.50
2010,07,09,02,06,17.40
2010,07,09,02,07,17.40
2010,07,09,02,08,17.40
2010,07,09,02,09,17.30
2010,07,09,02,10,17.30
2010,07,09,02,11,17.30
2010,07,09,02,12,17.30
2010,07,09,02,13,17.30
2010,07,09,02,14,17.30
2010,07,09,02,15,17.30
2010,07,09,02,16,17.20
2010,07,09,02,17,17.20
2010,07,09,02,18,17.20
2010,07,09,02,19,17.20
2010,07,09,02,20,17.20
2010,07,09,02,21,17.20
2010,07,09,02,22,17.20
2010,07,09,02,23,17.10
2010,07,09,02,24,17.10
2010,07,09,02,25,17.10
2010,07,09,02,26,17.10
2010,07,09,02,27,17.10
2010,07,09,02,28,17.10
2010,07,09,02,29,17.10
2010,07,09,02,30,17.10
2010,07,09,02,31,17.10
2010,07,09,02,32,17.00
2010,07,09,02,33,17.00
2010,07,09,02,34,17.00
2010,07,09,02,35,17.00
2010,07,09,02,36,17.00
2010,07,09,02,37,16.90
2010,07,09,02,38,16.90
2010,07,09,02,39,16.90
2010,07,09,02,40,16.90
2010,07,09,02,41,16.90
2010,07,09,02,42,16.90
2010,07,09,02,43,16.90
2010,07,09,02,44,16.90
2010,07,09,02,45,16.90
2010,07,09,02,46,16.90
2010,07,09,02,47,16.80
2010,07,09,02,48,16.80
2010,07,09,02,49,16.80
2010,07,09,02,50,16.80
2010,07,09,02,51,16.80
2010,07,09,02,52,16.70
2010,07,09,02,53,16.70
2010,07,09,02,54,16.70
2010,07,09,02,55,16.70
2010,07,09,02,56,16.70
2010,07,09,02,57,16.70
2010,07,09,02,58,16.70
2010,07,09,02,59,16.60
2010,07,09,03,00,16.60
2010,07,09,03,01,16.60
2010,07,09,03,02,16.60
2010,07,09,03,03,16.60
2010,07,09,03,06,16.50
2010,07,09,03,07,16.40
2010,07,09,03,08,16.40
2010,07,09,03,09,16.40
2010,07,09,03,10,16.40
2010,07,09,03,11,16.40
2010,07,09,03,12,16.40
2010,07,09,03,13,16.30
2010,07,09,03,14,16.30
2010,07,09,03,15,16.30
2010,07,09,03,16,16.30
2010,07,09,03,17,16.30
2010,07,09,03,18,16.30
2010,07,09,03,19,16.30
2010,07,09,03,20,16.20
2010,07,09,03,21,16.20
2010,07,09,03,22,16.20
2010,07,09,03,23,16.20
2010,07,09,03,24,16.20
2010,07,09,03,25,16.20
2010,07,09,03,26,16.20
2010,07,09,03,27,16.20
2010,07,09,03,28,16.20
2010,07,09,03,29,16.20
2010,07,09,03,30,16.20
2010,07,09,03,31,16.20
2010,07,09,03,32,16.20
2010,07,09,03,33,16.20
2010,07,09,03,34,16.20
2010,07,09,03,35,16.20
2010,07,09,03,36,16.20
2010,07,09,03,37,16.20
2010,07,09,03,38,16.20
2010,07,09,03,39,16.20
2010,07,09,03,40,16.20
2010,07,09,03,41,16.20
2010,07,09,03,42,16.20
2010,07,09,03,43,16.20
2010,07,09,03,44,16.10
2010,07,09,03,45,16.10
2010,07,09,03,46,16.10
2010,07,09,03,47,16.10
2010,07,09,03,48,16.00
2010,07,09,03,49,16.00
2010,07,09,03,50,16.00
2010,07,09,03,51,15.90
2010,07,09,03,52,15.90
2010,07,09,03,53,15.90
2010,07,09,03,54,15.90
2010,07,09,03,55,15.90
2010,07,09,03,56,15.90
2010,07,09,03,57,15.90
2010,07,09,03,58,15.90
2010,07,09,03,59,15.90
2010,07,09,04,00,15.90
2010,07,09,04,01,15.90
2010,07,09,04,02,15.80
2010,07,09,04,03,15.80
2010,07,09,04,04,15.80
2010,07,09,04,05,15.80
2010,07,09,04,06,15.70
2010,07,09,04,07,15.70
2010,07,09,04,08,15.70
2010,07,09,04,09,15.60
2010,07,09,04,10,15.60
2010,07,09,04,11,15.60
2010,07,09,04,12,15.60
2010,07,09,04,13,15.60
2010,07,09,04,14,15.60
2010,07,09,04,15,15.60
2010,07,09,04,16,15.60
2010,07,09,04,17,15.60
2010,07,09,04,18,15.60
2010,07,09,04,19,15.60
2010,07,09,04,20,15.50
2010,07,09,04,21,15.50
2010,07,09,04,22,15.50
2010,07,09,04,23,15.50
2010,07,09,04,24,15.50
2010,07,09,04,25,15.50
2010,07,09,04,26,15.40
2010,07,09,04,27,15.40
2010,07,09,04,28,15.40
2010,07,09,04,29,15.40
2010,07,09,04,30,15.40
2010,07,09,04,31,15.40
2010,07,09,04,32,15.40
2010,07,09,04,33,15.40
2010,07,09,04,34,15.40
2010,07,09,04,35,15.40
2010,07,09,04,36,15.40
2010,07,09,04,37,15.40
2010,07,09,04,38,15.40
2010,07,09,04,39,15.40
2010,07,09,04,40,15.40
2010,07,09,04,41,15.40
2010,07,09,04,42,15.40
2010,07,09,04,43,15.40
2010,07,09,04,44,15.30
2010,07,09,04,45,15.30
2010,07,09,04,46,15.30
2010,07,09,04,47,15.30
2010,07,09,04,48,15.30
2010,07,09,04,49,15.30
2010,07,09,04,50,15.30
2010,07,09,04,51,15.30
2010,07,09,04,52,15.30
2010,07,09,04,53,15.30
2010,07,09,04,54,15.30
2010,07,09,04,55,15.20
2010,07,09,04,56,15.20
2010,07,09,04,57,15.20
2010,07,09,04,58,15.20
2010,07,09,04,59,15.20
2010,07,09,05,00,15.20
2010,07,09,05,01,15.20
2010,07,09,05,02,15.10
2010,07,09,05,03,15.10
2010,07,09,05,04,15.10
2010,07,09,05,05,15.10
2010,07,09,05,06,15.00
2010,07,09,05,07,15.00
2010,07,09,05,08,15.00
2010,07,09,05,09,15.00
2010,07,09,05,10,14.90
2010,07,09,05,11,14.90
2010,07,09,05,12,14.90
2010,07,09,05,13,14.90
2010,07,09,05,14,14.90
2010,07,09,05,15,14.90
2010,07,09,05,16,14.90
2010,07,09,05,17,14.90
2010,07,09,05,18,14.80
2010,07,09,05,19,14.80
2010,07,09,05,20,14.80
2010,07,09,05,21,14.80
2010,07,09,05,22,14.80
2010,07,09,05,23,14.80
2010,07,09,05,24,14.70
2010,07,09,05,25,14.70
2010,07,09,05,26,14.70
2010,07,09,05,27,14.70
2010,07,09,05,28,14.70
2010,07,09,05,29,14.60
2010,07,09,05,30,14.60
2010,07,09,05,31,14.60
2010,07,09,05,32,14.60
2010,07,09,05,33,14.60
2010,07,09,05,34,14.60
2010,07,09,05,35,14.50
2010,07,09,05,36,14.50
2010,07,09,05,37,14.50
2010,07,09,05,38,14.50
2010,07,09,05,39,14.40
2010,07,09,05,40,14.40
2010,07,09,05,41,14.40
2010,07,09,05,42,14.40
2010,07,09,05,43,14.40
2010,07,09,05,44,14.40
2010,07,09,05,45,14.40
2010,07,09,05,46,14.40
2010,07,09,05,47,14.40
2010,07,09,05,48,14.40
2010,07,09,05,49,14.40
2010,07,09,05,50,14.40
2010,07,09,05,51,14.40
2010,07,09,05,52,14.40
2010,07,09,05,53,14.40
2010,07,09,05,54,14.40
2010,07,09,05,55,14.40
2010,07,09,05,56,14.40
2010,07,09,05,57,14.40
2010,07,09,05,58,14.40
2010,07,09,05,59,14.40
2010,07,09,06,00,14.40
2010,07,09,06,01,14.40
2010,07,09,06,02,14.40
2010,07,09,06,03,14.40
2010,07,09,06,04,14.40
2010,07,09,06,05,14.40
2010,07,09,06,06,14.40
2010,07,09,06,07,14.40
2010,07,09,06,08,14.50
2010,07,09,06,09,14.50
2010,07,09,06,10,14.50
2010,07,09,06,11,14.50
2010,07,09,06,12,14.60
2010,07,09,06,13,14.60
2010,07,09,06,14,14.60
2010,07,09,06,15,14.60
2010,07,09,06,16,14.60
2010,07,09,06,17,14.60
2010,07,09,06,18,14.60
2010,07,09,06,19,14.60
2010,07,09,06,20,14.60
2010,07,09,06,21,14.60
2010,07,09,06,22,14.60
2010,07,09,06,23,14.70
2010,07,09,06,24,14.70
2010,07,09,06,25,14.70
2010,07,09,06,26,14.70
2010,07,09,06,27,14.70
2010,07,09,06,28,14.70
2010,07,09,06,29,14.80
2010,07,09,06,30,14.80
2010,07,09,06,31,14.80
2010,07,09,06,32,14.80
2010,07,09,06,33,14.90
2010,07,09,06,34,14.90
2010,07,09,06,35,14.90
2010,07,09,06,36,15.00
2010,07,09,06,37,15.00
2010,07,09,06,38,15.10
2010,07,09,06,39,15.10
2010,07,09,06,40,15.20
2010,07,09,06,41,15.20
2010,07,09,06,42,15.30
2010,07,09,06,43,15.40
2010,07,09,06,44,15.40
2010,07,09,06,45,15.50
2010,07,09,06,46,15.60
2010,07,09,06,47,15.60
2010,07,09,06,48,15.70
2010,07,09,06,49,15.80
2010,07,09,06,50,15.80
2010,07,09,06,51,15.90
2010,07,09,06,52,16.00
2010,07,09,06,53,16.10
2010,07,09,06,54,16.10
2010,07,09,06,55,16.20
2010,07,09,06,56,16.30
2010,07,09,06,57,16.30
2010,07,09,06,58,16.40
2010,07,09,06,59,16.50
2010,07,09,07,00,16.50
2010,07,09,07,01,16.60
2010,07,09,07,02,16.60
2010,07,09,07,03,16.70
2010,07,09,07,04,16.70
2010,07,09,07,05,16.70
2010,07,09,07,06,16.70
2010,07,09,07,07,16.70
2010,07,09,07,08,16.70
2010,07,09,07,09,16.70
2010,07,09,07,10,16.70
2010,07,09,07,11,16.60
2010,07,09,07,12,16.60
2010,07,09,07,13,16.60
2010,07,09,07,14,16.70
2010,07,09,07,15,16.70
2010,07,09,07,16,16.70
2010,07,09,07,17,16.70
2010,07,09,07,18,16.70
2010,07,09,07,19,16.70
2010,07,09,07,20,16.80
2010,07,09,07,21,16.80
2010,07,09,07,22,16.80
2010,07,09,07,23,16.90
2010,07,09,07,24,16.90
2010,07,09,07,25,17.00
2010,07,09,07,26,17.10
2010,07,09,07,27,17.20
2010,07,09,07,28,17.20
2010,07,09,07,29,17.30
2010,07,09,07,30,17.30
2010,07,09,07,31,17.40
2010,07,09,07,32,17.40
2010,07,09,07,33,17.50
2010,07,09,07,34,17.60
2010,07,09,07,35,17.60
2010,07,09,07,36,17.70
2010,07,09,07,37,17.80
2010,07,09,07,38,17.90
2010,07,09,07,39,18.00
2010,07,09,07,40,18.00
2010,07,09,07,41,18.10
2010,07,09,07,42,18.20
2010,07,09,07,43,18.20
2010,07,09,07,44,18.30
2010,07,09,07,45,18.40
2010,07,09,07,46,18.50
2010,07,09,07,47,18.60
2010,07,09,07,48,18.70
2010,07,09,07,49,18.80
2010,07,09,07,50,18.90
2010,07,09,07,51,19.00
2010,07,09,07,52,19.10
2010,07,09,07,53,19.10
2010,07,09,07,54,19.20
2010,07,09,07,55,19.20
2010,07,09,07,56,19.30
2010,07,09,07,57,19.40
2010,07,09,07,58,19.40
2010,07,09,07,59,19.60
2010,07,09,08,00,19.70
2010,07,09,08,01,19.80
2010,07,09,08,02,19.90
2010,07,09,08,03,20.00
2010,07,09,08,04,20.10
2010,07,09,08,05,20.20
2010,07,09,08,06,20.30
2010,07,09,08,07,20.30
2010,07,09,08,08,20.40
2010,07,09,08,09,20.40
2010,07,09,08,10,20.40
2010,07,09,08,11,20.50
2010,07,09,08,12,20.50
2010,07,09,08,13,20.50
2010,07,09,08,14,20.60
2010,07,09,08,15,20.70
2010,07,09,08,16,20.80
2010,07,09,08,17,20.80
2010,07,09,08,18,20.90
2010,07,09,08,19,21.00
2010,07,09,08,20,21.10
2010,07,09,08,21,21.20
2010,07,09,08,22,21.30
2010,07,09,08,23,21.30
2010,07,09,08,24,21.30
2010,07,09,08,25,21.30
2010,07,09,08,26,21.30
2010,07,09,08,27,21.40
2010,07,09,08,28,21.40
2010,07,09,08,29,21.50
2010,07,09,08,30,21.60
2010,07,09,08,31,21.60
2010,07,09,08,32,21.70
2010,07,09,08,33,21.70
2010,07,09,08,34,21.80
2010,07,09,08,35,21.90
2010,07,09,08,36,21.90
2010,07,09,08,37,22.00
2010,07,09,08,38,22.00
2010,07,09,08,39,22.00
2010,07,09,08,40,22.10
2010,07,09,08,41,22.10
2010,07,09,08,42,22.10
2010,07,09,08,43,22.10
2010,07,09,08,44,22.20
2010,07,09,08,45,22.20
2010,07,09,08,46,22.30
2010,07,09,08,47,22.30
2010,07,09,08,48,22.40
2010,07,09,08,49,22.50
2010,07,09,08,50,22.50
2010,07,09,08,51,22.60
2010,07,09,08,52,22.60
2010,07,09,08,53,22.60
2010,07,09,08,54,22.60
2010,07,09,08,55,22.60
2010,07,09,08,56,22.70
2010,07,09,08,57,22.70
2010,07,09,08,58,22.80
2010,07,09,08,59,22.90
2010,07,09,09,00,22.90
2010,07,09,09,01,23.00
2010,07,09,09,02,23.00
2010,07,09,09,03,23.10
2010,07,09,09,04,23.10
2010,07,09,09,05,23.20
2010,07,09,09,06,23.20
2010,07,09,09,07,23.20
2010,07,09,09,08,23.20
2010,07,09,09,09,23.30
2010,07,09,09,10,23.30
2010,07,09,09,11,23.40
2010,07,09,09,12,23.40
2010,07,09,09,13,23.50
2010,07,09,09,14,23.50
2010,07,09,09,15,23.60
2010,07,09,09,16,23.60
2010,07,09,09,17,23.60
2010,07,09,09,18,23.60
2010,07,09,09,19,23.60
2010,07,09,09,20,23.70
2010,07,09,09,21,23.80
2010,07,09,09,22,23.80
2010,07,09,09,23,23.80
2010,07,09,09,24,23.90
2010,07,09,09,25,23.90
2010,07,09,09,26,23.90
2010,07,09,09,27,24.00
2010,07,09,09,28,24.10
2010,07,09,09,29,24.20
2010,07,09,09,30,24.30
2010,07,09,09,31,24.40
2010,07,09,09,32,24.50
2010,07,09,09,33,24.50
2010,07,09,09,34,24.60
2010,07,09,09,35,24.60
2010,07,09,09,36,24.60
2010,07,09,09,37,24.70
2010,07,09,09,38,24.70
2010,07,09,09,39,24.70
2010,07,09,09,40,24.70
2010,07,09,09,41,24.70
2010,07,09,09,42,24.70
2010,07,09,09,43,24.70
2010,07,09,09,44,24.80
2010,07,09,09,45,24.80
2010,07,09,09,46,24.80
2010,07,09,09,47,24.90
2010,07,09,09,48,24.90
2010,07,09,09,49,24.90
2010,07,09,09,50,24.90
2010,07,09,09,51,25.00
2010,07,09,09,52,25.00
2010,07,09,09,53,25.00
2010,07,09,09,54,25.10
2010,07,09,09,55,25.20
2010,07,09,09,56,25.30
2010,07,09,09,57,25.40
2010,07,09,09,58,25.50
2010,07,09,09,59,25.60
2010,07,09,10,00,25.70
2010,07,09,10,01,25.80
2010,07,09,10,02,25.80
2010,07,09,10,03,25.90
2010,07,09,10,04,25.90
2010,07,09,10,05,26.00
2010,07,09,10,06,26.10
2010,07,09,10,07,26.20
2010,07,09,10,08,26.30
2010,07,09,10,09,26.30
2010,07,09,10,10,26.40
2010,07,09,10,11,26.50
2010,07,09,10,12,26.60
2010,07,09,10,13,26.70
2010,07,09,10,14,26.80
2010,07,09,10,15,26.80
2010,07,09,10,16,26.90
2010,07,09,10,17,27.00
2010,07,09,10,18,27.00
2010,07,09,10,19,27.10
2010,07,09,10,20,27.20
2010,07,09,10,21,27.20
2010,07,09,10,22,27.20
2010,07,09,10,23,27.30
2010,07,09,10,24,27.30
2010,07,09,10,25,27.40
2010,07,09,10,26,27.40
2010,07,09,10,27,27.40
2010,07,09,10,28,27.50
2010,07,09,10,29,27.60
2010,07,09,10,30,27.60
2010,07,09,10,31,27.60
2010,07,09,10,32,27.60
2010,07,09,10,33,27.60
2010,07,09,10,34,27.60
2010,07,09,10,35,27.50
2010,07,09,10,36,27.50
2010,07,09,10,37,27.50
2010,07,09,10,38,27.60
2010,07,09,10,39,27.60
2010,07,09,10,40,27.60
2010,07,09,10,41,27.60
2010,07,09,10,42,27.60
2010,07,09,10,43,27.70
2010,07,09,10,44,27.70
2010,07,09,10,45,27.80
2010,07,09,10,46,27.90
2010,07,09,10,47,27.90
2010,07,09,10,48,28.00
2010,07,09,10,49,28.10
2010,07,09,10,50,28.10
2010,07,09,10,51,28.10
2010,07,09,10,52,28.10
2010,07,09,10,53,28.20
2010,07,09,10,54,28.10
2010,07,09,10,55,28.10
2010,07,09,10,56,28.10
2010,07,09,10,57,28.10
2010,07,09,10,58,28.20
2010,07,09,10,59,28.20
2010,07,09,11,00,28.30
2010,07,09,11,01,28.30
2010,07,09,11,02,28.30
2010,07,09,11,03,28.30
2010,07,09,11,04,28.30
2010,07,09,11,05,28.30
2010,07,09,11,06,28.30
2010,07,09,11,07,28.30
2010,07,09,11,08,28.30
2010,07,09,11,09,28.40
2010,07,09,11,10,28.40
2010,07,09,11,11,28.40
2010,07,09,11,12,28.40
2010,07,09,11,13,28.40
2010,07,09,11,14,28.40
2010,07,09,11,15,28.50
2010,07,09,11,16,28.60
2010,07,09,11,17,28.60
2010,07,09,11,18,28.70
2010,07,09,11,19,28.70
2010,07,09,11,20,28.80
2010,07,09,11,21,28.80
2010,07,09,11,22,28.80
2010,07,09,11,23,28.80
2010,07,09,11,24,28.80
2010,07,09,11,25,28.80
2010,07,09,11,26,28.80
2010,07,09,11,27,28.80
2010,07,09,11,28,28.80
2010,07,09,11,29,28.80
2010,07,09,11,30,28.80
2010,07,09,11,31,28.80
2010,07,09,11,32,28.80
2010,07,09,11,33,28.80
2010,07,09,11,34,28.80
2010,07,09,11,35,28.80
2010,07,09,11,36,28.90
2010,07,09,11,37,28.90
2010,07,09,11,38,28.90
2010,07,09,11,39,28.90
2010,07,09,11,40,29.00
2010,07,09,11,41,29.00
2010,07,09,11,42,29.10
2010,07,09,11,43,29.20
2010,07,09,11,44,29.20
2010,07,09,11,45,29.30
2010,07,09,11,46,29.20
2010,07,09,11,47,29.20
2010,07,09,11,48,29.30
2010,07,09,11,49,29.30
2010,07,09,11,50,29.40
2010,07,09,11,51,29.50
2010,07,09,11,52,29.60
2010,07,09,11,53,29.60
2010,07,09,11,54,29.60
2010,07,09,11,55,29.60
2010,07,09,11,56,29.60
2010,07,09,11,57,29.60
2010,07,09,11,58,29.70
2010,07,09,11,59,29.80
2010,07,09,12,00,29.80
2010,07,09,12,01,29.80
2010,07,09,12,02,29.90
2010,07,09,12,03,29.90
2010,07,09,12,04,30.00
2010,07,09,12,05,30.00
2010,07,09,12,06,30.00
2010,07,09,12,07,30.10
2010,07,09,12,08,30.10
2010,07,09,12,09,30.10
2010,07,09,12,10,30.20
2010,07,09,12,11,30.30
2010,07,09,12,12,30.30
2010,07,09,12,13,30.40
2010,07,09,12,14,30.50
2010,07,09,12,15,30.50
2010,07,09,12,16,30.40
2010,07,09,12,17,30.40
2010,07,09,12,18,30.40
2010,07,09,12,19,30.40
2010,07,09,12,20,30.40
2010,07,09,12,21,30.50
2010,07,09,12,22,30.60
2010,07,09,12,23,30.70
2010,07,09,12,24,30.70
2010,07,09,12,25,30.80
2010,07,09,12,26,30.80
2010,07,09,12,27,30.80
2010,07,09,12,28,30.90
2010,07,09,12,29,30.90
2010,07,09,12,30,30.90
2010,07,09,12,31,31.00
2010,07,09,12,32,31.00
2010,07,09,12,33,31.10
2010,07,09,12,34,31.20
2010,07,09,12,35,31.30
2010,07,09,12,36,31.30
2010,07,09,12,37,31.40
2010,07,09,12,38,31.50
2010,07,09,12,39,31.50
2010,07,09,12,40,31.40
2010,07,09,12,41,31.40
2010,07,09,12,42,31.40
2010,07,09,12,43,31.40
2010,07,09,12,44,31.40
2010,07,09,12,45,31.40
2010,07,09,12,46,31.50
2010,07,09,12,47,31.50
2010,07,09,12,48,31.60
2010,07,09,12,49,31.60
2010,07,09,12,50,31.70
2010,07,09,12,51,31.80
2010,07,09,12,52,31.80
2010,07,09,12,53,31.80
2010,07,09,12,54,31.90
2010,07,09,12,55,31.90
2010,07,09,12,56,31.90
2010,07,09,12,57,31.80
2010,07,09,12,58,31.70
2010,07,09,12,59,31.70
2010,07,09,13,00,31.60
2010,07,09,13,01,31.60
2010,07,09,13,02,31.50
2010,07,09,13,03,31.40
2010,07,09,13,04,31.40
2010,07,09,13,05,31.40
2010,07,09,13,06,31.40
2010,07,09,13,07,31.40
2010,07,09,13,08,31.50
2010,07,09,13,09,31.50
2010,07,09,13,10,31.50
2010,07,09,13,11,31.50
2010,07,09,13,12,31.60
2010,07,09,13,13,31.70
2010,07,09,13,14,31.80
2010,07,09,13,15,31.80
2010,07,09,13,16,31.80
2010,07,09,13,17,31.80
2010,07,09,13,18,31.80
2010,07,09,13,19,31.90
2010,07,09,13,20,31.90
2010,07,09,13,21,31.90
2010,07,09,13,22,31.90
2010,07,09,13,23,31.90
2010,07,09,13,24,31.90
2010,07,09,13,25,32.00
2010,07,09,13,26,32.10
2010,07,09,13,27,32.10
2010,07,09,13,28,32.10
2010,07,09,13,29,32.10
2010,07,09,13,30,32.10
2010,07,09,13,31,32.10
2010,07,09,13,32,32.00
2010,07,09,13,33,32.00
2010,07,09,13,34,31.90
2010,07,09,13,35,31.90
2010,07,09,13,36,31.80
2010,07,09,13,37,31.70
2010,07,09,13,38,31.60
2010,07,09,13,39,31.60
2010,07,09,13,40,31.50
2010,07,09,13,41,31.50
2010,07,09,13,42,31.50
2010,07,09,13,43,31.50
2010,07,09,13,44,31.50
2010,07,09,13,45,31.50
2010,07,09,13,46,31.50
2010,07,09,13,47,31.40
2010,07,09,13,48,31.40
2010,07,09,13,49,31.50
2010,07,09,13,50,31.50
2010,07,09,13,51,31.50
2010,07,09,13,52,31.40
2010,07,09,13,53,31.40
2010,07,09,13,54,31.30
2010,07,09,13,55,31.20
2010,07,09,13,56,31.20
2010,07,09,13,57,31.10
2010,07,09,13,58,31.10
2010,07,09,13,59,31.10
2010,07,09,14,00,31.10
2010,07,09,14,01,31.00
2010,07,09,14,02,31.00
2010,07,09,14,03,30.90
2010,07,09,14,04,30.90
2010,07,09,14,05,30.90
2010,07,09,14,06,30.80
2010,07,09,14,07,30.90
2010,07,09,14,08,30.90
2010,07,09,14,09,30.80
2010,07,09,14,10,30.90
2010,07,09,14,11,30.90
2010,07,09,14,12,30.90
2010,07,09,14,13,30.80
2010,07,09,14,14,30.80
2010,07,09,14,15,30.80
2010,07,09,14,16,30.80
2010,07,09,14,17,30.80
2010,07,09,14,18,30.80
2010,07,09,14,19,30.80
2010,07,09,14,20,30.90
2010,07,09,14,21,30.90
2010,07,09,14,22,30.90
2010,07,09,14,23,30.90
2010,07,09,14,24,30.90
2010,07,09,14,25,31.00
2010,07,09,14,26,31.10
2010,07,09,14,27,31.10
2010,07,09,14,28,31.20
2010,07,09,14,29,31.20
2010,07,09,14,30,31.20
2010,07,09,14,31,31.20
2010,07,09,14,32,31.20
2010,07,09,14,33,31.20
2010,07,09,14,34,31.20
2010,07,09,14,35,31.20
2010,07,09,14,36,31.20
2010,07,09,14,37,31.10
2010,07,09,14,38,31.10
2010,07,09,14,39,31.10
2010,07,09,14,40,31.10
2010,07,09,14,41,31.10
2010,07,09,14,42,31.10
2010,07,09,14,43,31.10
2010,07,09,14,44,31.10
2010,07,09,14,45,31.10
2010,07,09,14,46,31.10
2010,07,09,14,47,31.10
2010,07,09,14,48,31.10
2010,07,09,14,49,31.10
2010,07,09,14,50,31.10
2010,07,09,14,51,31.10
2010,07,09,14,52,31.00
2010,07,09,14,53,31.00
2010,07,09,14,54,31.00
2010,07,09,14,55,31.00
2010,07,09,14,56,31.00
2010,07,09,14,57,31.00
2010,07,09,14,58,31.00
2010,07,09,14,59,31.00
2010,07,09,15,00,31.00
2010,07,09,15,01,31.00
2010,07,09,15,02,31.00
2010,07,09,15,03,31.00
2010,07,09,15,04,31.00
2010,07,09,15,05,31.00
2010,07,09,15,06,31.00
2010,07,09,15,07,31.00
2010,07,09,15,08,31.00
2010,07,09,15,09,31.00
2010,07,09,15,10,30.90
2010,07,09,15,11,30.90
2010,07,09,15,12,30.90
2010,07,09,15,13,30.90
2010,07,09,15,14,30.80
2010,07,09,15,15,30.80
2010,07,09,15,16,30.80
2010,07,09,15,17,30.80
2010,07,09,15,18,30.80
2010,07,09,15,19,30.80
2010,07,09,15,20,30.80
2010,07,09,15,21,30.70
2010,07,09,15,22,30.70
2010,07,09,15,23,30.70
2010,07,09,15,24,30.70
2010,07,09,15,25,30.70
2010,07,09,15,26,30.70
2010,07,09,15,27,30.70
2010,07,09,15,28,30.70
2010,07,09,15,29,30.80
2010,07,09,15,30,30.80
2010,07,09,15,31,30.70
2010,07,09,15,32,30.70
2010,07,09,15,33,30.70
2010,07,09,15,34,30.70
2010,07,09,15,35,30.80
2010,07,09,15,36,30.80
2010,07,09,15,37,30.80
2010,07,09,15,38,30.70
2010,07,09,15,39,30.70
2010,07,09,15,40,30.80
2010,07,09,15,41,30.80
2010,07,09,15,42,30.80
2010,07,09,15,43,30.80
2010,07,09,15,44,30.80
2010,07,09,15,45,30.90
2010,07,09,15,46,30.80
2010,07,09,15,47,30.80
2010,07,09,15,48,30.80
2010,07,09,15,49,30.80
2010,07,09,15,50,30.70
2010,07,09,15,51,30.70
2010,07,09,15,52,30.70
2010,07,09,15,53,30.60
2010,07,09,15,54,30.60
2010,07,09,15,55,30.60
2010,07,09,15,56,30.60
2010,07,09,15,57,30.50
2010,07,09,15,58,30.50
2010,07,09,15,59,30.50
2010,07,09,16,00,30.40
2010,07,09,16,01,30.40
2010,07,09,16,02,30.40
2010,07,09,16,03,30.30
2010,07,09,16,04,30.30
2010,07,09,16,05,30.30
2010,07,09,16,06,30.40
2010,07,09,16,07,30.40
2010,07,09,16,08,30.40
2010,07,09,16,09,30.40
2010,07,09,16,10,30.30
2010,07,09,16,11,30.30
2010,07,09,16,12,30.30
2010,07,09,16,13,30.30
2010,07,09,16,14,30.30
2010,07,09,16,15,30.30
2010,07,09,16,16,30.30
2010,07,09,16,17,30.30
2010,07,09,16,18,30.30
2010,07,09,16,19,30.30
2010,07,09,16,20,30.30
2010,07,09,16,21,30.20
2010,07,09,16,22,30.20
2010,07,09,16,23,30.20
2010,07,09,16,24,30.10
2010,07,09,16,25,30.00
2010,07,09,16,26,29.90
2010,07,09,16,27,29.90
2010,07,09,16,28,29.90
2010,07,09,16,29,29.90
2010,07,09,16,30,29.90
2010,07,09,16,31,29.80
2010,07,09,16,32,29.80
2010,07,09,16,33,29.80
2010,07,09,16,34,29.80
2010,07,09,16,35,29.80
2010,07,09,16,36,29.80
2010,07,09,16,37,29.70
2010,07,09,16,38,29.60
2010,07,09,16,39,29.50
2010,07,09,16,40,29.50
2010,07,09,16,41,29.40
2010,07,09,16,42,29.40
2010,07,09,16,43,29.30
2010,07,09,16,44,29.30
2010,07,09,16,45,29.30
2010,07,09,16,46,29.30
2010,07,09,16,47,29.30
2010,07,09,16,48,29.30
2010,07,09,16,49,29.30
2010,07,09,16,50,29.30
2010,07,09,16,51,29.30
2010,07,09,16,52,29.30
2010,07,09,16,53,29.30
2010,07,09,16,54,29.30
2010,07,09,16,55,29.30
2010,07,09,16,56,29.30
2010,07,09,16,57,29.30
2010,07,09,16,58,29.30
2010,07,09,16,59,29.30
2010,07,09,17,00,29.30
2010,07,09,17,01,29.30
2010,07,09,17,02,29.30
2010,07,09,17,03,29.30
2010,07,09,17,04,29.30
2010,07,09,17,05,29.30
2010,07,09,17,06,29.20
2010,07,09,17,07,29.20
2010,07,09,17,08,29.20
2010,07,09,17,09,29.20
2010,07,09,17,10,29.20
2010,07,09,17,11,29.20
2010,07,09,17,12,29.20
2010,07,09,17,13,29.20
2010,07,09,17,14,29.30
2010,07,09,17,15,29.20
2010,07,09,17,16,29.20
2010,07,09,17,17,29.10
2010,07,09,17,18,29.10
2010,07,09,17,19,29.10
2010,07,09,17,20,29.00
2010,07,09,17,21,29.00